Weather History for PAFB - April, 2013

Change the Weather History Date:

Sunday, April 28, 2013

  Actual Average Record
Temperature  
Mean Temperature 18 °F -  
Max Temperature 35 °F 47 °F 66 °F (2005)
Min Temperature 0 °F 29 °F 0 °F (2013)
Degree Days  
Heating Degree Days 48    
Moisture  
Dew Point 3 °F    
Average Humidity 49    
Maximum Humidity 72    
Minimum Humidity 31    
Precipitation  
Precipitation 0.00 in - - ()
Sea Level Pressure  
Sea Level Pressure 30.17 in    
Wind  
Wind Speed 3 mph (WSW)    
Max Wind Speed 14 mph    
Max Gust Speed -    
Visibility 10 miles    
Events      
Averages and records for this station are not official NWS values.
T = Trace of Precipitation, MM = Missing Value Source: NWS Daily Summary

Daily Weather History Graph

Daily Weather History Graph

Search for Another Location

Airport or City:

Trip Planner

Search our weather history database for the weather conditions in past years. The results will help you decide how hot, cold, wet, or windy it might be!

Date:

Astronomy

Apr. 28, 2013 Rise Set
Actual Time 5:26 AM AKDT 10:11 PM AKDT
Civil Twilight 4:16 AM AKDT 11:22 PM AKDT
Nautical Twilight 2:20 AM AKDT 1:15 AM AKDT
Astronomical Twilight Sun does not rise Sun does not rise
Moon 1:42 AM AKDT (4/28) 6:58 AM AKDT (4/28)
Length of Visible Light 19h 05m
Length of Day
16h 44m
Waning Gibbous, 87% of the Moon is Illuminated
Apr 28
Waning Gibbous
May 2
Last Quarter
May 9
New
May 17
First Quarter
May 24
Full

Hourly Weather History & Observations

Time (AKDT) Temp. Windchill Dew Point Humidity Pressure Visibility Wind Dir Wind Speed Gust Speed Precip Events Conditions
12:56 AM 12.0 °F - -5.1 °F 46% 30.18 in 10.0 mi Calm Calm - N/A   Clear
1:56 AM 9.0 °F - -4.0 °F 56% 30.20 in 10.0 mi Calm Calm - N/A   Clear
2:56 AM 8.1 °F -2.0 °F -5.1 °F 55% 30.20 in 10.0 mi NE 5.8 mph - N/A   Clear
3:56 AM 9.0 °F 2.4 °F -4.0 °F 56% 30.21 in 10.0 mi WSW 3.5 mph - N/A   Clear
4:56 AM -0.0 °F -11.6 °F -7.1 °F 72% 30.20 in 10.0 mi East 5.8 mph - N/A   Clear
5:56 AM 3.9 °F - -6.0 °F 64% 30.20 in 10.0 mi Calm Calm - N/A   Clear
6:56 AM 3.9 °F -5.3 °F -8.0 °F 58% 30.20 in 10.0 mi East 4.6 mph - N/A   Scattered Clouds
7:56 AM 9.0 °F - -6.0 °F 51% 30.21 in 10.0 mi Calm Calm - N/A   Scattered Clouds
8:56 AM 12.0 °F - -6.0 °F 44% 30.21 in 10.0 mi Calm Calm - N/A   Clear
9:56 AM 15.1 °F - -5.1 °F 41% 30.21 in 10.0 mi Calm Calm - N/A   Clear
10:56 AM 18.0 °F - -2.0 °F 41% 30.20 in 10.0 mi Calm Calm - N/A   Clear
11:56 AM 21.0 °F - -0.9 °F 38% 30.20 in 10.0 mi Calm Calm - N/A   Clear
12:56 PM 23.0 °F - -0.0 °F 37% 30.19 in 10.0 mi Calm Calm - N/A   Clear
1:56 PM 26.1 °F 21.9 °F -0.0 °F 32% 30.17 in 10.0 mi SW 3.5 mph - N/A   Clear
2:56 PM 30.0 °F - 3.9 °F 33% 30.16 in 10.0 mi Calm Calm - N/A   Clear
3:56 PM 30.9 °F 25.2 °F 8.1 °F 38% 30.14 in 10.0 mi SSW 5.8 mph - N/A   Clear
4:56 PM 35.1 °F - 7.0 °F 31% 30.13 in 10.0 mi Calm Calm - N/A   Clear
5:56 PM 34.0 °F 25.0 °F 15.1 °F 46% 30.12 in 10.0 mi West 12.7 mph - N/A   Scattered Clouds
6:56 PM 33.1 °F 24.4 °F 16.0 °F 50% 30.12 in 10.0 mi West 11.5 mph - N/A   Mostly Cloudy
7:56 PM 33.1 °F 23.9 °F 17.1 °F 52% 30.11 in 10.0 mi West 12.7 mph - N/A   Scattered Clouds
8:56 PM 32.0 °F 22.1 °F 16.0 °F 52% 30.12 in 10.0 mi West 13.8 mph - N/A   Partly Cloudy
9:56 PM 30.0 °F 22.4 °F 16.0 °F 56% 30.13 in 10.0 mi West 8.1 mph - N/A   Overcast
10:56 PM 27.0 °F 17.3 °F 15.1 °F 61% 30.14 in 10.0 mi West 10.4 mph - N/A   Partly Cloudy
11:56 PM 28.0 °F 21.7 °F 14.0 °F 56% 30.14 in 10.0 mi South 5.8 mph - N/A   Scattered Clouds